| time (UTC) | temp F | wind direction | speed MPH | gust MPH | rain 1hr in | rain 24hr in | rain mn in | humidity % | barometer mb |
| 20260831134550 | 78 | 11 | 4.0 | 11.0 | 0.00 | 0.00 | 0.00 | 68 | 1013.6 |
| 20260831133004 | 78 | 11 | 4.0 | 16.0 | 0.00 | 0.00 | 0.00 | 68 | 1013.5 |
| 20260831131609 | 78 | 11 | 5.0 | 16.0 | 0.00 | 0.00 | 0.00 | 68 | 1013.4 |
| 20260831130016 | 77 | 11 | 6.0 | 14.0 | 0.00 | 0.00 | 0.00 | 68 | 1013.5 |
| 20260831124603 | 77 | 11 | 5.0 | 17.0 | 0.00 | 0.00 | 0.00 | 68 | 1013.4 |
| 20260831123009 | 77 | 11 | 4.0 | 12.0 | 0.00 | 0.00 | 0.00 | 68 | 1013.1 |
| 20260831121609 | 77 | 11 | 5.0 | 14.0 | 0.00 | 0.00 | 0.00 | 68 | 1012.9 |
| 20260831120026 | 77 | 203 | 4.0 | 15.0 | 0.00 | 0.00 | 0.00 | 67 | 1012.5 |
| 20260831114613 | 77 | 11 | 5.0 | 15.0 | 0.00 | 0.00 | 0.00 | 67 | 1012.5 |
| 20260831113030 | 77 | 210 | 5.0 | 14.0 | 0.00 | 0.00 | 0.00 | 66 | 1012.5 |
| 20260831111614 | 77 | 11 | 3.0 | 11.0 | 0.00 | 0.00 | 0.00 | 66 | 1012.5 |
| 20260831110033 | 78 | 11 | 3.0 | 9.0 | 0.00 | 0.00 | 0.00 | 65 | 1012.5 |
| 20260831104621 | 78 | 11 | 2.0 | 11.0 | 0.00 | 0.00 | 0.00 | 64 | 1012.3 |
| 20260831103036 | 78 | 11 | 3.0 | 18.0 | 0.00 | 0.00 | 0.00 | 64 | 1011.9 |
| 20260831101614 | 79 | 11 | 3.0 | 13.0 | 0.00 | 0.00 | 0.00 | 63 | 1011.6 |
| 20260831100025 | 79 | 11 | 5.0 | 12.0 | 0.00 | 0.00 | 0.00 | 63 | 1011.3 |
| 20260831094637 | 79 | 154 | 3.0 | 13.0 | 0.00 | 0.00 | 0.00 | 62 | 1011.4 |
| 20260831093039 | 80 | 11 | 2.0 | 16.0 | 0.00 | 0.00 | 0.00 | 61 | 1011.4 |
| 20260831091618 | 80 | 11 | 5.0 | 16.0 | 0.00 | 0.00 | 0.00 | 61 | 1011.2 |
| 20260831090032 | 80 | 11 | 4.0 | 15.0 | 0.00 | 0.00 | 0.00 | 60 | 1011.1 |
| 20260831084619 | 81 | 182 | 2.0 | 10.0 | 0.00 | 0.00 | 0.00 | 60 | 1011.2 |
| 20260831083026 | 81 | 11 | 4.0 | 12.0 | 0.00 | 0.00 | 0.00 | 58 | 1011.3 |
| 20260831081623 | 81 | 11 | 4.0 | 17.0 | 0.00 | 0.00 | 0.00 | 58 | 1011.2 |
| 20260831080040 | 82 | 11 | 4.0 | 13.0 | 0.00 | 0.00 | 0.00 | 57 | 1011.2 |
| 20260831074625 | 82 | 193 | 5.0 | 12.0 | 0.00 | 0.00 | 0.00 | 56 | 1011.1 |
| 20260831073046 | 83 | 11 | 2.0 | 10.0 | 0.00 | 0.00 | 0.00 | 55 | 1011.0 |
| 20260831071635 | 83 | 11 | 2.0 | 14.0 | 0.00 | 0.00 | 0.00 | 54 | 1011.1 |
| 20260831070048 | 83 | 11 | 3.0 | 16.0 | 0.00 | 0.00 | 0.00 | 54 | 1010.8 |
| 20260831064505 | 84 | 195 | 3.0 | 13.0 | 0.00 | 0.00 | 0.00 | 53 | 1010.8 |
| 20260831063114 | 84 | 11 | 4.0 | 12.0 | 0.00 | 0.00 | 0.00 | 53 | 1010.6 |
| 20260831061518 | 84 | 11 | 4.0 | 15.0 | 0.00 | 0.00 | 0.00 | 53 | 1010.5 |
| 20260831060115 | 84 | 11 | 5.0 | 12.0 | 0.00 | 0.00 | 0.00 | 53 | 1010.3 |
| 20260831054520 | 84 | 11 | 4.0 | 18.0 | 0.00 | 0.00 | 0.00 | 53 | 1010.3 |
| 20260831053101 | 85 | 11 | 4.0 | 14.0 | 0.00 | 0.00 | 0.00 | 53 | 1010.3 |
| 20260831051513 | 85 | 11 | 5.0 | 16.0 | 0.00 | 0.00 | 0.00 | 52 | 1010.3 |
| 20260831050055 | 85 | 11 | 6.0 | 14.0 | 0.00 | 0.00 | 0.00 | 52 | 1010.2 |
| 20260831044507 | 86 | 11 | 6.0 | 16.0 | 0.00 | 0.00 | 0.00 | 52 | 1010.0 |
| 20260831043052 | 86 | 11 | 4.0 | 21.0 | 0.00 | 0.00 | 0.00 | 52 | 1010.1 |
| 20260831041506 | 86 | 180 | 5.0 | 14.0 | 0.00 | 0.00 | 0.00 | 52 | 1010.0 |
| 20260831040053 | 85 | 11 | 5.0 | 17.0 | 0.00 | 0.00 | 0.00 | 54 | 1010.0 |
| 20260831034515 | 85 | 11 | 2.0 | 10.0 | 0.00 | 0.00 | 0.00 | 54 | 1009.9 |
| 20260831033101 | 86 | 11 | 4.0 | 15.0 | 0.00 | 0.00 | 0.00 | 53 | 1010.0 |
| 20260831031510 | 86 | 11 | 4.0 | 11.0 | 0.00 | 0.00 | 0.00 | 53 | 1010.1 |
| 20260831030105 | 86 | 180 | 4.0 | 14.0 | 0.00 | 0.00 | 0.00 | 53 | 1010.0 |
| 20260831024523 | 86 | 182 | 3.0 | 12.0 | 0.00 | 0.00 | 0.00 | 53 | 1010.0 |
| 20260831023109 | 86 | 11 | 3.0 | 10.0 | 0.00 | 0.00 | 0.00 | 53 | 1009.9 |
| 20260831021535 | 87 | 11 | 1.0 | 9.0 | 0.00 | 0.00 | 0.00 | 52 | 1009.6 |
| 20260831020121 | 88 | 11 | 2.0 | 10.0 | 0.00 | 0.00 | 0.00 | 50 | 1009.6 |
| 20260831014528 | 88 | 195 | 2.0 | 10.0 | 0.00 | 0.00 | 0.00 | 49 | 1009.4 |
| 20260831013121 | 89 | 11 | 3.0 | 14.0 | 0.00 | 0.00 | 0.00 | 49 | 1009.0 |
| 20260831011541 | 90 | 11 | 2.0 | 8.0 | 0.00 | 0.00 | 0.00 | 48 | 1008.9 |
| 20260831010134 | 91 | 11 | 1.0 | 9.0 | 0.00 | 0.00 | 0.00 | 47 | 1008.9 |
| 20260831004556 | 92 | 186 | 1.0 | 9.0 | 0.00 | 0.00 | 0.00 | 46 | 1008.8 |
| 20260831003008 | 93 | 11 | 1.0 | 8.0 | 0.00 | 0.00 | 0.00 | 46 | 1008.8 |
| 20260831001558 | 94 | 11 | 3.0 | 11.0 | 0.00 | 0.00 | 0.00 | 44 | 1008.7 |
| 20260831000012 | 95 | 191 | 2.0 | 12.0 | 0.00 | 0.00 | 0.00 | 43 | 1008.6 |
| 20260830234609 | 96 | 11 | 3.0 | 15.0 | 0.00 | 0.00 | 0.00 | 40 | 1008.4 |
| 20260830233012 | 97 | 11 | 3.0 | 16.0 | 0.00 | 0.00 | 0.00 | 41 | 1008.4 |
| 20260830231602 | 97 | 11 | 2.0 | 12.0 | 0.00 | 0.00 | 0.00 | 42 | 1008.3 |
| 20260830230021 | 97 | 11 | 5.0 | 16.0 | 0.00 | 0.00 | 0.00 | 40 | 1008.4 |
| 20260830224616 | 98 | 11 | 7.0 | 17.0 | 0.00 | 0.00 | 0.00 | 40 | 1008.3 |
| 20260830223032 | 98 | 197 | 7.0 | 20.0 | 0.00 | 0.00 | 0.00 | 40 | 1008.3 |
| 20260830221626 | 98 | 11 | 6.0 | 14.0 | 0.00 | 0.00 | 0.00 | 40 | 1008.3 |
| 20260830220046 | 99 | 183 | 6.0 | 21.0 | 0.00 | 0.00 | 0.00 | 41 | 1008.4 |
| 20260830214631 | 99 | 11 | 4.0 | 19.0 | 0.00 | 0.00 | 0.00 | 42 | 1008.5 |
| 20260830213050 | 100 | 11 | 9.0 | 22.0 | 0.00 | 0.00 | 0.00 | 41 | 1008.6 |
| 20260830211635 | 100 | 11 | 6.0 | 14.0 | 0.00 | 0.00 | 0.00 | 41 | 1008.7 |
| 20260830210058 | 100 | 11 | 8.0 | 20.0 | 0.00 | 0.00 | 0.00 | 41 | 1008.9 |
| 20260830204502 | 100 | 11 | 7.0 | 20.0 | 0.00 | 0.00 | 0.00 | 41 | 1009.2 |
| 20260830203056 | 100 | 11 | 7.0 | 17.0 | 0.00 | 0.00 | 0.00 | 42 | 1009.4 |
| 20260830201513 | 99 | 210 | 6.0 | 25.0 | 0.00 | 0.00 | 0.00 | 43 | 1009.4 |
| 20260830200104 | 99 | 197 | 8.0 | 20.0 | 0.00 | 0.00 | 0.00 | 42 | 1009.6 |
| 20260830194510 | 99 | 11 | 7.0 | 12.0 | 0.00 | 0.00 | 0.00 | 43 | 1009.7 |
| 20260830193100 | 99 | 11 | 8.0 | 20.0 | 0.00 | 0.00 | 0.00 | 43 | 1009.9 |
| 20260830191520 | 99 | 11 | 11.0 | 22.0 | 0.00 | 0.00 | 0.00 | 42 | 1010.0 |
| 20260830190106 | 98 | 236 | 7.0 | 19.0 | 0.00 | 0.00 | 0.00 | 45 | 1010.2 |
| 20260830184518 | 96 | 11 | 10.0 | 21.0 | 0.00 | 0.00 | 0.00 | 47 | 1010.5 |
| 20260830183105 | 96 | 11 | 8.0 | 23.0 | 0.00 | 0.00 | 0.00 | 47 | 1010.5 |
| 20260830181517 | 95 | 11 | 5.0 | 27.0 | 0.00 | 0.00 | 0.00 | 49 | 1010.6 |
| 20260830174520 | 94 | 11 | 5.0 | 18.0 | 0.00 | 0.00 | 0.00 | 50 | 1011.0 |
| 20260830173118 | 93 | 224 | 6.0 | 18.0 | 0.00 | 0.00 | 0.00 | 51 | 1011.1 |
| 20260830171520 | 93 | 11 | 6.0 | 23.0 | 0.00 | 0.00 | 0.00 | 51 | 1011.4 |
| 20260830170114 | 92 | 195 | 5.0 | 23.0 | 0.00 | 0.00 | 0.00 | 53 | 1011.6 |
| 20260830164538 | 91 | 11 | 7.0 | 24.0 | 0.00 | 0.00 | 0.00 | 53 | 1011.7 |
| 20260830163126 | 90 | 11 | 8.0 | 23.0 | 0.00 | 0.00 | 0.00 | 54 | 1011.9 |
| 20260830161554 | 88 | 11 | 10.0 | 17.0 | 0.00 | 0.00 | 0.00 | 56 | 1011.9 |
| 20260830160127 | 87 | 11 | 9.0 | 23.0 | 0.00 | 0.00 | 0.00 | 56 | 1011.7 |
| 20260830154540 | 86 | 229 | 7.0 | 18.0 | 0.00 | 0.00 | 0.00 | 59 | 1011.4 |
| 20260830153124 | 84 | 11 | 5.0 | 15.0 | 0.00 | 0.00 | 0.00 | 61 | 1011.4 |
| 20260830151539 | 84 | 248 | 7.0 | 16.0 | 0.00 | 0.00 | 0.00 | 61 | 1011.1 |
| 20260830150124 | 83 | 11 | 5.0 | 17.0 | 0.00 | 0.00 | 0.00 | 62 | 1011.2 |
| 20260830144529 | 82 | 11 | 5.0 | 20.0 | 0.00 | 0.00 | 0.00 | 63 | 1011.2 |
| 20260830143130 | 82 | 11 | 9.0 | 22.0 | 0.00 | 0.00 | 0.00 | 61 | 1011.1 |
| 20260830141543 | 82 | 11 | 6.0 | 21.0 | 0.00 | 0.00 | 0.00 | 62 | 1011.4 |
| 20260830140002 | 81 | 188 | 8.0 | 24.0 | 0.00 | 0.00 | 0.00 | 63 | 1011.5 |